Lumberton, NJ

1:16 PM EDT on September 29, 2016 (GMT -0400)
South Jersey Regional

Weather History for KVAY - February, 2014

Change the Weather History Date:

Friday, February 28, 2014

  Actual Average (KWRI) Record (KWRI)
Temperature  
Mean Temperature 16 °F -  
Max Temperature 24 °F 45 °F 65 °F (2011)
Min Temperature 9 °F 27 °F 8 °F (2014)
Degree Days  
Heating Degree Days 48    
Moisture  
Dew Point -5 °F    
Average Humidity 40    
Maximum Humidity 74    
Minimum Humidity 25    
Precipitation  
Precipitation 0.00 in - - ()
Sea Level Pressure  
Sea Level Pressure 30.37 in    
Wind  
Wind Speed 7 mph (NW)    
Max Wind Speed 14 mph    
Max Gust Speed 21 mph    
Visibility 10 miles    
Events      
Averages and records for this station are not official NWS values.
T = Trace of Precipitation, MM = Missing Value Source: NWS Daily Summary

Daily Weather History Graph

Daily Weather History Graph

Search for Another Location

Airport or City:

Trip Planner

Search our weather history database for the weather conditions in past years. The results will help you decide how hot, cold, wet, or windy it might be!

Date:

Astronomy

Feb. 28, 2014 Rise Set
Actual Time 6:34 AM EST 5:50 PM EST
Civil Twilight 6:06 AM EST 6:17 PM EST
Nautical Twilight 5:35 AM EST 6:48 PM EST
Astronomical Twilight 5:04 AM EST 7:20 PM EST
Moon 5:47 AM EST (2/28) 5:24 PM EST (2/28)
Length of Visible Light 12h 10m
Length of Day
11h 16m
Waning Crescent, 1% of the Moon is Illuminated
Feb 28
Waning Crescent
Mar 1
New
Mar 8
First Quarter
Mar 16
Full
Mar 23
Last Quarter

Hourly Weather History & Observations

Time (EST) Temp. Windchill Dew Point Humidity Pressure Visibility Wind Dir Wind Speed Gust Speed Precip Events Conditions
12:54 AM 12.9 °F -2.2 °F -11.0 °F 34% 30.19 in 10.0 mi NNW 13.8 mph 20.7 mph N/A   Clear
1:54 AM 12.0 °F 1.5 °F -13.0 °F 32% 30.22 in 10.0 mi NW 6.9 mph 19.6 mph N/A   Clear
2:54 AM 10.9 °F -0.8 °F -13.0 °F 33% 30.24 in 10.0 mi NW 8.1 mph - N/A   Clear
3:54 AM 10.9 °F -1.8 °F -11.9 °F 35% 30.26 in 10.0 mi NW 9.2 mph - N/A   Clear
4:54 AM 10.0 °F -2.9 °F -11.9 °F 37% 30.29 in 10.0 mi NW 9.2 mph - N/A   Clear
5:54 AM 10.0 °F -2.9 °F -11.0 °F 38% 30.33 in 10.0 mi NNW 9.2 mph - N/A   Clear
6:54 AM 9.0 °F -2.2 °F -9.9 °F 42% 30.36 in 10.0 mi NW 6.9 mph - N/A   Clear
7:54 AM 12.0 °F -1.3 °F -9.0 °F 39% 30.39 in 10.0 mi NNW 10.4 mph - N/A   Clear
8:54 AM 12.9 °F 2.6 °F -8.0 °F 39% 30.42 in 10.0 mi NW 6.9 mph - N/A   Clear
9:54 AM 16.0 °F 6.3 °F -7.1 °F 36% 30.43 in 10.0 mi North 6.9 mph - N/A   Clear
10:54 AM 18.0 °F 6.1 °F -6.0 °F 35% 30.44 in 10.0 mi NNW 10.4 mph - N/A   Clear
11:54 AM 19.9 °F 10.1 °F -8.0 °F 29% 30.43 in 10.0 mi West 8.1 mph - N/A   Clear
12:54 PM 21.0 °F 14.6 °F -8.0 °F 28% 30.41 in 10.0 mi Variable 4.6 mph - N/A   Clear
1:54 PM 23.0 °F - -6.0 °F 28% 30.40 in 10.0 mi Calm Calm - N/A   Clear
2:54 PM 24.1 °F - -6.0 °F 27% 30.39 in 10.0 mi North - - N/A   Clear
3:54 PM 24.1 °F - -7.1 °F 25% 30.39 in 10.0 mi Calm Calm - N/A   Clear
4:54 PM 24.1 °F 18.2 °F -6.0 °F 27% 30.40 in 10.0 mi NNE 4.6 mph - N/A   Clear
5:54 PM 21.9 °F - -5.1 °F 30% 30.40 in 10.0 mi Calm Calm - N/A   Clear
6:54 PM 19.9 °F - 3.0 °F 48% 30.41 in 10.0 mi Calm Calm - N/A   Clear
7:54 PM 18.0 °F - 7.0 °F 62% 30.41 in 10.0 mi Calm Calm - N/A   Clear
8:54 PM 17.1 °F - 3.9 °F 56% 30.42 in 10.0 mi Calm Calm - N/A   Clear
9:54 PM 17.1 °F - 5.0 °F 59% 30.43 in 10.0 mi Calm Calm - N/A   Clear
10:54 PM 15.1 °F - 7.0 °F 70% 30.44 in 10.0 mi Calm Calm - N/A   Clear
11:54 PM 14.0 °F - 7.0 °F 74% 30.43 in 10.0 mi Calm Calm - N/A   Clear